CFTIW KAZO-KCAK

Flight info

Callsign CFTIW
Flight time 1h 7m
Altitude 7000
Route DCT
Aircraft BE58/L-SDE3/1200

Departure

Time 2026-05-08 11:08
Airport Kalamazoo/Battle Creek International Airport (KAZO)

Arrival

Time 2026-05-08 12:16
Airport Akron Canton Regional Airport (KCAK)
Time Latitude Longitude Altitude Speed Heading
2026-05-08 10:53 42.23969 -85.55469 865 ft 0 kts 323°
2026-05-08 10:59 42.23962 -85.55461 862 ft 2 kts 323°
2026-05-08 10:59 42.23949 -85.55449 859 ft 2 kts 323°
2026-05-08 10:59 42.23941 -85.55440 862 ft 0 kts 323°
2026-05-08 11:00 42.23943 -85.55443 861 ft 3 kts 309°
2026-05-08 11:00 42.23915 -85.55426 866 ft 11 kts 114°
2026-05-08 11:00 42.23857 -85.55348 860 ft 13 kts 162°
2026-05-08 11:01 42.23794 -85.55398 865 ft 12 kts 225°
2026-05-08 11:01 42.23719 -85.55504 867 ft 12 kts 240°
2026-05-08 11:01 42.23741 -85.55575 870 ft 9 kts 317°
2026-05-08 11:01 42.23763 -85.55637 871 ft 6 kts 228°
2026-05-08 11:02 42.23694 -85.55732 873 ft 17 kts 224°
2026-05-08 11:02 42.23522 -85.55841 877 ft 13 kts 134°
2026-05-08 11:02 42.23451 -85.55747 876 ft 15 kts 134°
2026-05-08 11:03 42.23371 -85.55708 876 ft 9 kts 185°
2026-05-08 11:03 42.23328 -85.55657 875 ft 12 kts 90°
2026-05-08 11:03 42.23327 -85.55529 874 ft 16 kts 90°
2026-05-08 11:03 42.23329 -85.55347 872 ft 21 kts 90°
2026-05-08 11:04 42.23328 -85.55191 870 ft 13 kts 92°
2026-05-08 11:04 42.23268 -85.55141 870 ft 14 kts 173°
2026-05-08 11:04 42.23131 -85.55111 870 ft 25 kts 171°
2026-05-08 11:04 42.22973 -85.55079 870 ft 21 kts 171°
2026-05-08 11:05 42.22843 -85.55051 870 ft 20 kts 171°
2026-05-08 11:05 42.22688 -85.55018 871 ft 21 kts 171°
2026-05-08 11:05 42.22565 -85.54992 871 ft 16 kts 171°
2026-05-08 11:05 42.22437 -85.54965 871 ft 20 kts 172°
2026-05-08 11:06 42.22370 -85.54921 872 ft 9 kts 97°
2026-05-08 11:06 42.22371 -85.54903 872 ft 0 kts 80°
2026-05-08 11:06 42.22374 -85.54884 872 ft 4 kts 75°
2026-05-08 11:07 42.22385 -85.54829 872 ft 8 kts 62°
2026-05-08 11:07 42.22413 -85.54811 872 ft 5 kts 351°
2026-05-08 11:07 42.22418 -85.54812 872 ft 0 kts 350°
2026-05-08 11:07 42.22425 -85.54814 872 ft 7 kts 349°
2026-05-08 11:08 42.22638 -85.54860 871 ft 62 kts 349°
2026-05-08 11:08 42.23308 -85.55002 882 ft 129 kts 351°
2026-05-08 11:08 42.24234 -85.55162 1342 ft 131 kts 355°
2026-05-08 11:08 42.25119 -85.55197 1916 ft 131 kts 359°
2026-05-08 11:09 42.26033 -85.54782 2384 ft 147 kts 33°
2026-05-08 11:09 42.26605 -85.53608 2858 ft 156 kts 74°
2026-05-08 11:09 42.26551 -85.52161 3411 ft 156 kts 109°
2026-05-08 11:09 42.25961 -85.50939 3849 ft 158 kts 139°
2026-05-08 11:10 42.25184 -85.49943 4451 ft 150 kts 140°
2026-05-08 11:10 42.24482 -85.48996 5069 ft 141 kts 139°
2026-05-08 11:10 42.23812 -85.48089 5686 ft 132 kts 139°
2026-05-08 11:10 42.23178 -85.47259 6305 ft 124 kts 141°
2026-05-08 11:11 42.22560 -85.46423 6755 ft 128 kts 141°
2026-05-08 11:11 42.21892 -85.45533 7001 ft 150 kts 141°
2026-05-08 11:11 42.21074 -85.44472 7020 ft 175 kts 137°
2026-05-08 11:11 42.20523 -85.43597 7018 ft 186 kts 133°
2026-05-08 11:12 42.19416 -85.41758 7013 ft 194 kts 132°
2026-05-08 11:12 42.18852 -85.40784 7012 ft 196 kts 126°
2026-05-08 11:12 42.18292 -85.39094 7016 ft 199 kts 111°
2026-05-08 11:12 42.17868 -85.37317 7016 ft 200 kts 105°
2026-05-08 11:13 42.17539 -85.35498 7014 ft 199 kts 103°
2026-05-08 11:13 42.17250 -85.33677 7014 ft 198 kts 102°
2026-05-08 11:13 42.16968 -85.31865 7011 ft 197 kts 102°
2026-05-08 11:13 42.16596 -85.30094 7015 ft 196 kts 115°
2026-05-08 11:14 42.15993 -85.28452 7012 ft 195 kts 120°
2026-05-08 11:14 42.15323 -85.26860 7011 ft 195 kts 124°
2026-05-08 11:14 42.14618 -85.25297 7016 ft 195 kts 124°
2026-05-08 11:14 42.13972 -85.23690 7011 ft 196 kts 115°
2026-05-08 11:15 42.13487 -85.21967 7011 ft 197 kts 111°
2026-05-08 11:15 42.13003 -85.20270 7009 ft 196 kts 113°
2026-05-08 11:15 42.12491 -85.18564 7009 ft 196 kts 114°
2026-05-08 11:15 42.11975 -85.16861 7012 ft 197 kts 114°
2026-05-08 11:16 42.11460 -85.15153 7014 ft 197 kts 114°
2026-05-08 11:16 42.10945 -85.13448 7018 ft 196 kts 114°
2026-05-08 11:16 42.10431 -85.11746 7016 ft 197 kts 114°
2026-05-08 11:16 42.09915 -85.10036 7015 ft 197 kts 114°
2026-05-08 11:17 42.09400 -85.08333 7013 ft 197 kts 114°
2026-05-08 11:17 42.08884 -85.06630 7017 ft 197 kts 114°
2026-05-08 11:17 42.08367 -85.04921 7009 ft 197 kts 114°
2026-05-08 11:17 42.07851 -85.03219 7015 ft 197 kts 114°
2026-05-08 11:18 42.07334 -85.01512 7013 ft 197 kts 114°
2026-05-08 11:18 42.06817 -84.99808 7014 ft 197 kts 114°
2026-05-08 11:18 42.06299 -84.98101 7015 ft 197 kts 114°
2026-05-08 11:18 42.05781 -84.96397 7012 ft 197 kts 114°
2026-05-08 11:19 42.05262 -84.94689 7014 ft 197 kts 114°
2026-05-08 11:19 42.04744 -84.92985 7014 ft 197 kts 114°
2026-05-08 11:19 42.04223 -84.91275 7012 ft 197 kts 114°
2026-05-08 11:19 42.03703 -84.89567 7011 ft 197 kts 114°
2026-05-08 11:20 42.03184 -84.87861 7008 ft 197 kts 114°
2026-05-08 11:20 42.02662 -84.86151 7009 ft 197 kts 114°
2026-05-08 11:20 42.02141 -84.84445 7011 ft 197 kts 114°
2026-05-08 11:20 42.01619 -84.82734 7011 ft 197 kts 114°
2026-05-08 11:21 42.01098 -84.81028 7003 ft 198 kts 114°
2026-05-08 11:21 42.00575 -84.79318 7009 ft 197 kts 114°
2026-05-08 11:21 42.00052 -84.77612 7008 ft 198 kts 114°
2026-05-08 11:21 41.99529 -84.75899 7007 ft 198 kts 114°
2026-05-08 11:22 41.99005 -84.74191 7008 ft 198 kts 114°
2026-05-08 11:22 41.98481 -84.72482 7006 ft 198 kts 114°
2026-05-08 11:22 41.97957 -84.70771 7006 ft 198 kts 114°
2026-05-08 11:22 41.97431 -84.69060 7004 ft 198 kts 114°
2026-05-08 11:23 41.96914 -84.67375 7002 ft 198 kts 114°
2026-05-08 11:23 41.96388 -84.65665 6998 ft 198 kts 114°
2026-05-08 11:23 41.95864 -84.63958 7006 ft 198 kts 114°
2026-05-08 11:23 41.95339 -84.62252 7007 ft 198 kts 114°
2026-05-08 11:24 41.94813 -84.60545 7004 ft 198 kts 114°
2026-05-08 11:24 41.94287 -84.58840 7006 ft 198 kts 114°
2026-05-08 11:24 41.93761 -84.57131 7006 ft 198 kts 114°
2026-05-08 11:24 41.93234 -84.55425 7004 ft 198 kts 114°
2026-05-08 11:25 41.92708 -84.53719 7006 ft 198 kts 114°
2026-05-08 11:25 41.92179 -84.52007 7000 ft 198 kts 114°
2026-05-08 11:25 41.91652 -84.50300 7001 ft 198 kts 114°
2026-05-08 11:25 41.91123 -84.48593 7006 ft 198 kts 114°
2026-05-08 11:26 41.90594 -84.46884 7007 ft 198 kts 114°
2026-05-08 11:26 41.90065 -84.45174 7005 ft 198 kts 114°
2026-05-08 11:26 41.89536 -84.43467 7005 ft 198 kts 114°
2026-05-08 11:26 41.89006 -84.41758 7004 ft 198 kts 114°
2026-05-08 11:27 41.88476 -84.40051 7004 ft 198 kts 114°
2026-05-08 11:27 41.87946 -84.38342 7006 ft 199 kts 114°
2026-05-08 11:27 41.87411 -84.36625 7011 ft 200 kts 114°
2026-05-08 11:27 41.86876 -84.34900 7009 ft 200 kts 114°
2026-05-08 11:28 41.86342 -84.33180 7016 ft 200 kts 114°
2026-05-08 11:28 41.85813 -84.31486 7015 ft 200 kts 114°
2026-05-08 11:28 41.85269 -84.29744 7011 ft 200 kts 114°
2026-05-08 11:28 41.84733 -84.28022 7011 ft 200 kts 114°
2026-05-08 11:29 41.84204 -84.26325 7014 ft 200 kts 114°
2026-05-08 11:29 41.83668 -84.24606 7016 ft 200 kts 114°
2026-05-08 11:29 41.83132 -84.22889 7019 ft 200 kts 114°
2026-05-08 11:29 41.82597 -84.21173 7016 ft 199 kts 114°
2026-05-08 11:30 41.82061 -84.19462 7007 ft 199 kts 114°
2026-05-08 11:30 41.81526 -84.17752 7020 ft 199 kts 114°
2026-05-08 11:30 41.80989 -84.16041 7015 ft 199 kts 114°
2026-05-08 11:30 41.80453 -84.14327 7017 ft 199 kts 114°
2026-05-08 11:31 41.79915 -84.12611 7016 ft 200 kts 114°
2026-05-08 11:31 41.79374 -84.10892 7016 ft 200 kts 114°
2026-05-08 11:31 41.78837 -84.09178 7017 ft 200 kts 114°
2026-05-08 11:31 41.78298 -84.07459 7017 ft 200 kts 114°
2026-05-08 11:32 41.77759 -84.05745 7017 ft 200 kts 114°
2026-05-08 11:32 41.77217 -84.04026 7015 ft 200 kts 114°
2026-05-08 11:32 41.76678 -84.02312 7015 ft 199 kts 114°
2026-05-08 11:32 41.76140 -84.00600 7013 ft 199 kts 114°
2026-05-08 11:33 41.75600 -83.98890 7013 ft 200 kts 115°
2026-05-08 11:33 41.75059 -83.97173 7012 ft 200 kts 115°
2026-05-08 11:33 41.74518 -83.95459 7017 ft 200 kts 115°
2026-05-08 11:33 41.73977 -83.93747 7015 ft 200 kts 115°
2026-05-08 11:34 41.73436 -83.92034 7007 ft 200 kts 115°
2026-05-08 11:34 41.72893 -83.90316 7008 ft 200 kts 115°
2026-05-08 11:34 41.72349 -83.88598 7009 ft 201 kts 115°
2026-05-08 11:34 41.71806 -83.86879 7002 ft 201 kts 115°
2026-05-08 11:35 41.71261 -83.85158 7004 ft 201 kts 115°
2026-05-08 11:35 41.70723 -83.83462 7004 ft 200 kts 115°
2026-05-08 11:35 41.70179 -83.81746 7008 ft 200 kts 115°
2026-05-08 11:35 41.69635 -83.80032 7003 ft 200 kts 115°
2026-05-08 11:36 41.69090 -83.78317 7006 ft 200 kts 115°
2026-05-08 11:36 41.68546 -83.76605 7013 ft 200 kts 115°
2026-05-08 11:36 41.68001 -83.74892 7011 ft 200 kts 115°
2026-05-08 11:36 41.67458 -83.73182 7009 ft 200 kts 115°
2026-05-08 11:37 41.66912 -83.71470 7015 ft 200 kts 115°
2026-05-08 11:37 41.66367 -83.69758 7015 ft 200 kts 115°
2026-05-08 11:37 41.65821 -83.68044 7015 ft 200 kts 115°
2026-05-08 11:37 41.65274 -83.66330 7013 ft 201 kts 115°
2026-05-08 11:38 41.64724 -83.64609 7012 ft 201 kts 115°
2026-05-08 11:38 41.64177 -83.62893 7015 ft 201 kts 115°
2026-05-08 11:38 41.63628 -83.61179 7010 ft 201 kts 115°
2026-05-08 11:38 41.63079 -83.59460 7011 ft 201 kts 115°
2026-05-08 11:39 41.62529 -83.57742 7015 ft 201 kts 115°
2026-05-08 11:39 41.61979 -83.56023 7015 ft 201 kts 115°
2026-05-08 11:39 41.61429 -83.54304 7014 ft 201 kts 115°
2026-05-08 11:39 41.60875 -83.52580 7012 ft 202 kts 115°
2026-05-08 11:40 41.60322 -83.50856 7014 ft 202 kts 116°
2026-05-08 11:40 41.59768 -83.49132 7017 ft 202 kts 116°
2026-05-08 11:40 41.59215 -83.47406 7014 ft 202 kts 116°
2026-05-08 11:40 41.58667 -83.45702 7014 ft 202 kts 116°
2026-05-08 11:41 41.58104 -83.43952 7013 ft 202 kts 116°
2026-05-08 11:41 41.57556 -83.42250 7014 ft 202 kts 116°
2026-05-08 11:41 41.56999 -83.40521 7012 ft 203 kts 116°
2026-05-08 11:41 41.56441 -83.38786 7014 ft 203 kts 116°
2026-05-08 11:42 41.55882 -83.37054 7013 ft 203 kts 116°
2026-05-08 11:42 41.55324 -83.35324 7012 ft 203 kts 116°
2026-05-08 11:42 41.54764 -83.33590 7015 ft 203 kts 116°
2026-05-08 11:42 41.54203 -83.31855 7015 ft 204 kts 116°
2026-05-08 11:43 41.53642 -83.30118 7014 ft 204 kts 116°
2026-05-08 11:43 41.53081 -83.28383 7015 ft 204 kts 116°
2026-05-08 11:43 41.52517 -83.26643 7015 ft 204 kts 116°
2026-05-08 11:43 41.51953 -83.24900 7014 ft 204 kts 116°
2026-05-08 11:44 41.51390 -83.23162 7015 ft 205 kts 116°
2026-05-08 11:44 41.50824 -83.21418 7014 ft 205 kts 116°
2026-05-08 11:44 41.50259 -83.19675 7017 ft 205 kts 116°
2026-05-08 11:44 41.49692 -83.17931 7018 ft 205 kts 116°
2026-05-08 11:45 41.49125 -83.16186 7017 ft 205 kts 116°
2026-05-08 11:45 41.48557 -83.14437 7016 ft 205 kts 116°
2026-05-08 11:45 41.47989 -83.12692 7016 ft 205 kts 116°
2026-05-08 11:45 41.47421 -83.10948 7020 ft 205 kts 116°
2026-05-08 11:46 41.46852 -83.09201 7018 ft 206 kts 116°
2026-05-08 11:46 41.46282 -83.07452 7015 ft 206 kts 116°
2026-05-08 11:46 41.45712 -83.05706 7014 ft 205 kts 116°
2026-05-08 11:46 41.45142 -83.03957 7016 ft 205 kts 116°
2026-05-08 11:47 41.44579 -83.02236 7015 ft 206 kts 116°
2026-05-08 11:47 41.44008 -83.00488 7017 ft 206 kts 116°
2026-05-08 11:47 41.43437 -82.98740 7013 ft 206 kts 116°
2026-05-08 11:47 41.42864 -82.96991 7013 ft 206 kts 116°
2026-05-08 11:48 41.42291 -82.95241 7012 ft 206 kts 116°
2026-05-08 11:48 41.41719 -82.93492 7013 ft 206 kts 116°
2026-05-08 11:48 41.41146 -82.91745 7017 ft 206 kts 116°
2026-05-08 11:48 41.40572 -82.89996 7014 ft 206 kts 116°
2026-05-08 11:49 41.39996 -82.88243 7016 ft 206 kts 116°
2026-05-08 11:49 41.39421 -82.86493 7016 ft 206 kts 116°
2026-05-08 11:49 41.38846 -82.84742 7015 ft 207 kts 116°
2026-05-08 11:49 41.38269 -82.82987 7020 ft 207 kts 116°
2026-05-08 11:50 41.37691 -82.81232 7018 ft 207 kts 116°
2026-05-08 11:50 41.37115 -82.79481 7020 ft 206 kts 116°
2026-05-08 11:50 41.36537 -82.77728 7018 ft 206 kts 116°
2026-05-08 11:50 41.35959 -82.75977 7019 ft 207 kts 116°
2026-05-08 11:51 41.35380 -82.74221 7020 ft 207 kts 116°
2026-05-08 11:51 41.34804 -82.72474 7020 ft 207 kts 116°
2026-05-08 11:51 41.34225 -82.70723 7021 ft 206 kts 116°
2026-05-08 11:51 41.33646 -82.68971 7021 ft 207 kts 116°
2026-05-08 11:52 41.33067 -82.67221 7023 ft 207 kts 116°
2026-05-08 11:52 41.32494 -82.65489 7020 ft 207 kts 116°
2026-05-08 11:52 41.31913 -82.63737 7024 ft 207 kts 116°
2026-05-08 11:52 41.31330 -82.61977 7019 ft 207 kts 116°
2026-05-08 11:53 41.30748 -82.60223 7022 ft 207 kts 116°
2026-05-08 11:53 41.30165 -82.58466 7026 ft 208 kts 116°
2026-05-08 11:53 41.29583 -82.56712 7025 ft 208 kts 116°
2026-05-08 11:53 41.28999 -82.54953 7025 ft 208 kts 116°
2026-05-08 11:54 41.28414 -82.53193 7025 ft 209 kts 116°
2026-05-08 11:54 41.27826 -82.51426 7023 ft 209 kts 116°
2026-05-08 11:54 41.27242 -82.49673 7022 ft 209 kts 116°
2026-05-08 11:54 41.26650 -82.47895 7019 ft 209 kts 116°
2026-05-08 11:55 41.26058 -82.46121 7021 ft 209 kts 116°
2026-05-08 11:55 41.25470 -82.44357 7020 ft 209 kts 116°
2026-05-08 11:55 41.24881 -82.42591 7019 ft 209 kts 116°
2026-05-08 11:55 41.24291 -82.40825 7019 ft 209 kts 116°
2026-05-08 11:56 41.23700 -82.39055 7018 ft 210 kts 116°
2026-05-08 11:56 41.23104 -82.37273 7019 ft 211 kts 117°
2026-05-08 11:56 41.22506 -82.35490 7017 ft 212 kts 117°
2026-05-08 11:56 41.21909 -82.33704 7019 ft 212 kts 117°
2026-05-08 11:57 41.21311 -82.31920 7021 ft 211 kts 117°
2026-05-08 11:57 41.20713 -82.30135 7018 ft 212 kts 117°
2026-05-08 11:57 41.20114 -82.28351 7020 ft 212 kts 117°
2026-05-08 11:57 41.19516 -82.26568 7017 ft 212 kts 117°
2026-05-08 11:58 41.18924 -82.24808 7019 ft 211 kts 117°
2026-05-08 11:58 41.18327 -82.23030 7023 ft 211 kts 117°
2026-05-08 11:58 41.17728 -82.21250 7028 ft 212 kts 117°
2026-05-08 11:59 41.16527 -82.17678 7021 ft 212 kts 117°
2026-05-08 11:59 41.15925 -82.15896 7025 ft 212 kts 117°
2026-05-08 11:59 41.15518 -82.14687 7022 ft 212 kts 117°
2026-05-08 11:59 41.14917 -82.12907 7020 ft 212 kts 117°
2026-05-08 12:00 41.14315 -82.11123 7022 ft 212 kts 117°
2026-05-08 12:00 41.13710 -82.09333 7022 ft 213 kts 117°
2026-05-08 12:00 41.13104 -82.07542 7024 ft 213 kts 117°
2026-05-08 12:00 41.12501 -82.05756 7024 ft 213 kts 117°
2026-05-08 12:01 41.11895 -82.03964 7029 ft 213 kts 116°
2026-05-08 12:01 41.11297 -82.02199 7046 ft 213 kts 117°
2026-05-08 12:01 41.10691 -82.00410 7050 ft 213 kts 117°
2026-05-08 12:01 41.10085 -81.98623 7044 ft 212 kts 117°
2026-05-08 12:02 41.09479 -81.96837 7047 ft 212 kts 117°
2026-05-08 12:02 41.08873 -81.95052 7044 ft 212 kts 117°
2026-05-08 12:02 41.08269 -81.93273 7053 ft 212 kts 117°
2026-05-08 12:02 41.07663 -81.91493 7052 ft 212 kts 117°
2026-05-08 12:03 41.07057 -81.89711 7045 ft 212 kts 117°
2026-05-08 12:03 41.06450 -81.87926 7049 ft 212 kts 117°
2026-05-08 12:03 41.05842 -81.86144 7046 ft 213 kts 117°
2026-05-08 12:03 41.05235 -81.84359 7053 ft 213 kts 117°
2026-05-08 12:04 41.04624 -81.82570 7045 ft 213 kts 117°
2026-05-08 12:04 41.04014 -81.80784 7047 ft 213 kts 117°
2026-05-08 12:04 41.03411 -81.79018 6952 ft 207 kts 117°
2026-05-08 12:04 41.02808 -81.77259 6519 ft 211 kts 117°
2026-05-08 12:05 41.02207 -81.75502 6153 ft 208 kts 117°
2026-05-08 12:05 41.01612 -81.73759 5765 ft 206 kts 117°
2026-05-08 12:05 41.01024 -81.72039 5397 ft 204 kts 118°
2026-05-08 12:05 41.00447 -81.70355 5027 ft 203 kts 118°
2026-05-08 12:06 40.99867 -81.68663 4624 ft 202 kts 117°
2026-05-08 12:06 40.99282 -81.66958 4220 ft 200 kts 117°
2026-05-08 12:06 40.98720 -81.65317 3837 ft 196 kts 117°
2026-05-08 12:06 40.98162 -81.63693 3437 ft 193 kts 116°
2026-05-08 12:07 40.97609 -81.62087 3049 ft 191 kts 116°
2026-05-08 12:07 40.97064 -81.60497 2668 ft 189 kts 116°
2026-05-08 12:07 40.96526 -81.58932 2361 ft 184 kts 117°
2026-05-08 12:07 40.96008 -81.57422 2346 ft 179 kts 116°
2026-05-08 12:08 40.95495 -81.55920 2349 ft 178 kts 117°
2026-05-08 12:08 40.94983 -81.54435 2344 ft 177 kts 117°
2026-05-08 12:08 40.94470 -81.52951 2343 ft 177 kts 117°
2026-05-08 12:08 40.93959 -81.51474 2343 ft 176 kts 117°
2026-05-08 12:09 40.93451 -81.50002 2342 ft 176 kts 117°
2026-05-08 12:09 40.92943 -81.48530 2349 ft 176 kts 117°
2026-05-08 12:09 40.92433 -81.47050 2344 ft 176 kts 117°
2026-05-08 12:09 40.91924 -81.45576 2345 ft 176 kts 117°
2026-05-08 12:10 40.91419 -81.44089 2343 ft 178 kts 117°
2026-05-08 12:10 40.90951 -81.42596 2335 ft 174 kts 104°
2026-05-08 12:10 40.91118 -81.41084 2341 ft 165 kts 54°
2026-05-08 12:10 40.91794 -81.39914 2342 ft 157 kts 46°
2026-05-08 12:11 40.92449 -81.38800 2335 ft 149 kts 47°
2026-05-08 12:11 40.93068 -81.37752 2339 ft 142 kts 46°
2026-05-08 12:11 40.93671 -81.36724 2341 ft 141 kts 46°
2026-05-08 12:11 40.94247 -81.35728 2355 ft 136 kts 46°
2026-05-08 12:12 40.94819 -81.34734 2338 ft 134 kts 46°
2026-05-08 12:12 40.95469 -81.33877 2206 ft 132 kts 16°
2026-05-08 12:12 40.96274 -81.33972 2156 ft 112 kts 320°
2026-05-08 12:12 40.96776 -81.34680 2158 ft 104 kts 291°
2026-05-08 12:13 40.96939 -81.35592 2152 ft 103 kts 264°
2026-05-08 12:13 40.96733 -81.36492 2147 ft 103 kts 246°
2026-05-08 12:13 40.96308 -81.37261 2149 ft 104 kts 234°
2026-05-08 12:13 40.95830 -81.38001 2162 ft 109 kts 234°
2026-05-08 12:14 40.95317 -81.38766 2158 ft 112 kts 234°
2026-05-08 12:14 40.94795 -81.39542 2099 ft 116 kts 232°
2026-05-08 12:14 40.94285 -81.40272 1936 ft 94 kts 230°
2026-05-08 12:14 40.93869 -81.40865 1803 ft 84 kts 230°
2026-05-08 12:15 40.93481 -81.41428 1694 ft 82 kts 230°
2026-05-08 12:15 40.93102 -81.41979 1578 ft 80 kts 226°
2026-05-08 12:15 40.92728 -81.42518 1466 ft 79 kts 229°
2026-05-08 12:15 40.92360 -81.43057 1359 ft 79 kts 231°
2026-05-08 12:16 40.91996 -81.43591 1266 ft 77 kts 227°
2026-05-08 12:16 40.91666 -81.44068 1217 ft 61 kts 227°
2026-05-08 12:16 40.91509 -81.44262 1215 ft 12 kts 178°
2026-05-08 12:16 40.91459 -81.44201 1216 ft 14 kts 138°
2026-05-08 12:17 40.91384 -81.44110 1217 ft 17 kts 139°
2026-05-08 12:17 40.91302 -81.44014 1217 ft 15 kts 140°
2026-05-08 12:17 40.91256 -81.43922 1216 ft 9 kts 67°
2026-05-08 12:17 40.91325 -81.43876 1216 ft 11 kts 358°
2026-05-08 12:18 40.91400 -81.43918 1217 ft 12 kts 338°
2026-05-08 12:18 40.91491 -81.43950 1217 ft 15 kts 360°
2026-05-08 12:18 40.91520 -81.43900 1218 ft 8 kts 101°
2026-05-08 12:18 40.91515 -81.43847 1218 ft 3 kts 97°
2026-05-08 12:19 40.91514 -81.43838 1218 ft 0 kts 97°